This is the latest recevied weather packets stored in our database for station/object G6UYG-13. If no packets are shown the sender has not sent any weather packets the latest 10 day(s).
| Time | Temp. | Humidity | Pressure | Rain* | Wind** | Luminosity | Snow |
|---|---|---|---|---|---|---|---|
| 1777375930 | 10° C | 81% | 1026.6 hPa | 0 mm | - | 105 W/m² | - |
| 1777375510 | 10° C | 81% | 1026.5 hPa | 0 mm | - | 160 W/m² | - |
| 1777375090 | 10° C | 82% | 1026.5 hPa | 0 mm | - | 206 W/m² | - |
| 1777374670 | 10° C | 82% | 1026.6 hPa | 0 mm | - | 225 W/m² | - |
| 1777374250 | 10° C | 82% | 1026.6 hPa | 0 mm | - | 127 W/m² | - |
| 1777373830 | 10° C | 82% | 1026.6 hPa | 0 mm | - | 134 W/m² | - |
| 1777373410 | 10° C | 81% | 1026.7 hPa | 0 mm | - | 65 W/m² | - |
| 1777372990 | 10° C | 81% | 1026.7 hPa | 0 mm | - | 77 W/m² | - |
| 1777372570 | 10° C | 81% | 1026.7 hPa | 0 mm | - | 105 W/m² | - |
| 1777372150 | 10° C | 81% | 1026.7 hPa | 0 mm | - | 95 W/m² | - |
| 1777371730 | 10° C | 81% | 1026.5 hPa | 0 mm | - | 93 W/m² | - |
| 1777371310 | 10° C | 81% | 1026.4 hPa | 0 mm | - | 88 W/m² | - |
| 1777370890 | 10° C | 82% | 1026.4 hPa | 0 mm | - | 86 W/m² | - |
| 1777370470 | 10° C | 82% | 1026.3 hPa | 0 mm | - | 81 W/m² | - |
| 1777370050 | 10° C | 82% | 1026.3 hPa | 0 mm | - | 84 W/m² | - |
| 1777369630 | 10° C | 82% | 1026.3 hPa | 0 mm | - | 72 W/m² | - |
| 1777369210 | 10° C | 82% | 1026.2 hPa | 0 mm | - | 95 W/m² | - |
| 1777368790 | 10° C | 81% | 1026.2 hPa | 0 mm | - | 77 W/m² | - |
| 1777368370 | 10° C | 82% | 1026.2 hPa | 0 mm | - | 95 W/m² | - |
| 1777367950 | 10° C | 81% | 1026.2 hPa | 0 mm | - | 95 W/m² | - |
| 1777367530 | 10° C | 82% | 1026.1 hPa | 0 mm | - | 142 W/m² | - |
| 1777367110 | 10° C | 82% | 1026.1 hPa | 0 mm | - | 79 W/m² | - |
| 1777366690 | 9.44° C | 81% | 1026.2 hPa | 0 mm | - | 81 W/m² | - |
| 1777366270 | 10° C | 81% | 1026.1 hPa | 0 mm | - | 88 W/m² | - |
| 1777365850 | 10° C | 82% | 1026.1 hPa | 0 mm | - | 141 W/m² | - |
* Rain latest hour (hover to see other rain measurements)
** Current wind speed in m/s (hover to see current wind gust speed)